[[{"header":{"parameterUnit":"m.s-1","parameterCategory":2,"la1":30.2992,"la2":30.254,"lo1":-89.0895,"lo2":-89.0443,"dy":0.0025,"dx":0.0025,"nx":19,"ny":19,"refTime":"2026-03-18T03:00:00:Z","depth":"0","parameterNumber":2,"parameterNumberName":"U-component_of_CURRENTS"},"data":[0,0,0,0.2929,0.2927,0.2871,0.2871,0.2922,0.2922,0,0,0,0,0,0,0,0,0,0,0,0.2986,0.2986,0.293,0.2926,0.2871,0.2871,0.2922,0.2922,0,0,0,0,0,0,0,0,0,0,0,0.2987,0.2986,0.2985,0.2926,0.287,0.2871,0.2922,0.2945,0,0,0,0,0,0,0,0,0,0,0.2989,0.3004,0.2986,0.2985,0.2925,0.287,0.2871,0.2946,0.2944,0.2967,0,0.2948,0,0.2899,0.2924,0.2924,0,0,0,0.2975,0.3005,0.2976,0.2985,0.2924,0.287,0.291,0.2944,0.2942,0.2965,0.2947,0.2947,0.29,0.2924,0.2924,0.294,0.294,0,0,0.2978,0.2995,0.2977,0.2975,0.2897,0.2911,0.2907,0.2942,0.2946,0.2947,0.2947,0.2901,0.2924,0.2925,0.294,0.294,0,0,0,0.2954,0.2997,0.2967,0.2975,0.2934,0.2908,0.2904,0.2945,0.2931,0.2947,0.2901,0.2925,0.2925,0.294,0.294,0.2926,0,0,0,0.2959,0.2978,0.2968,0.298,0.2932,0.2917,0.2907,0.293,0.293,0.2901,0.2925,0.2925,0.294,0.294,0.2926,0.2897,0,0,0,0.2991,0.2981,0.2968,0.298,0.2927,0.2915,0.2905,0.293,0.29,0.2924,0.2925,0.294,0.294,0.2926,0.2898,0.2844,0,0,0,0.3021,0.2993,0.2969,0.2938,0.2927,0.2888,0.2904,0.2895,0.2914,0.2925,0.294,0.294,0.2927,0.2899,0.2846,0.27,0.2681,0,0,0.3,0.2991,0.2975,0.295,0.2904,0.29,0.2879,0.2909,0.2924,0.2946,0.2946,0.2926,0.2898,0.2845,0.2698,0.2678,0,0,0,0.2978,0.2972,0.2955,0.2924,0.2888,0.2873,0.2879,0.2893,0.2922,0.292,0.2929,0.2912,0.2878,0.2794,0.2779,0.2522,0.294,0.294,0.294,0.301,0.298,0.2948,0.2914,0.2889,0.2863,0.287,0.2892,0.2908,0.2921,0.2903,0.2855,0.2767,0.2754,0.2492,0.2919,0.2919,0.2919,0.2919,0.3004,0.295,0.2949,0.2907,0.2878,0.2863,0.2861,0.2877,0.2865,0.29,0.2869,0.2788,0.2735,0.2462,0.2918,0.2919,0.2919,0.2919,0.2919,0.2939,0.2906,0.2933,0.2917,0.2874,0.2846,0.2788,0.281,0.2836,0.2814,0.2684,0.2683,0.2435,0.278,0.278,0.278,0.2779,0.2779,0.2779,0.2866,0.2886,0.2877,0.2881,0.2867,0.2801,0.2741,0.2706,0.2638,0.2632,0.2631,0.2368,0.2811,0.2809,0.2773,0.2774,0.2775,0.2776,0.2776,0.2831,0.2769,0.2819,0.2824,0.2788,0.2657,0.2629,0.2469,0.2436,0.2375,0.2105,0.2534,0.2511,0.2522,0.2512,0.2402,0.2402,0.2402,0.2401,0.2744,0.2731,0.2755,0.2778,0.2712,0.2585,0.2323,0.2167,0.196,0.1783,0.1807,0.1778,0.1805,0.1741,0.177,0.1744,0.1442,0.144,0.1439,0.2782,0.2776,0.2777,0.2745,0.2678,0.2464,0.2137,0.1758,0.1418,0.1379,0.1471,0.1512,0.1458,0.1521,0.142,0.1481,0.1443,0,0]},{"header":{"parameterUnit":"m.s-1","parameterCategory":2,"la1":30.2992,"la2":30.254,"lo1":-89.0895,"lo2":-89.0443,"dy":0.0025,"dx":0.0025,"nx":19,"ny":19,"refTime":"2026-03-18T03:00:00:Z","depth":"0","parameterNumber":3,"parameterNumberName":"V-component_of_CURRENTS"},"data":[0,0,0,0.0228,0.0229,0.0336,0.0337,0.0584,0.0586,0,0,0,0,0,0,0,0,0,0,0,0.0198,0.0198,0.0228,0.0229,0.0336,0.0337,0.0584,0.0586,0,0,0,0,0,0,0,0,0,0,0,0.0198,0.0198,0.0198,0.0229,0.0336,0.0337,0.0583,0.0484,0,0,0,0,0,0,0,0,0,0,0.0369,0.0316,0.0198,0.0198,0.023,0.0336,0.0337,0.0478,0.049,0.0556,0,0.0551,0,0.0559,0.0602,0.0603,0,0,0,0.0264,0.0306,0.0324,0.0198,0.023,0.0335,0.0298,0.0484,0.0498,0.0572,0.0555,0.0563,0.0563,0.0604,0.0605,0.0945,0.0947,0,0,0.0258,0.0239,0.0314,0.0331,0.0234,0.0294,0.0301,0.0491,0.0504,0.0556,0.0568,0.0567,0.0605,0.0607,0.0943,0.0945,0,0,0,0.0218,0.0234,0.0247,0.0322,0.0324,0.0296,0.0304,0.0497,0.0496,0.0571,0.057,0.0606,0.0609,0.0941,0.0944,0.0941,0,0,0,0.0216,0.0208,0.0243,0.0236,0.0318,0.0396,0.0305,0.0484,0.0504,0.0569,0.0607,0.0612,0.0938,0.0942,0.0936,0.0949,0,0,0,0.0197,0.0207,0.0208,0.0234,0.0262,0.0392,0.0405,0.0488,0.0503,0.0603,0.0612,0.0937,0.0942,0.0932,0.0943,0.1024,0,0,0,0.019,0.0171,0.0207,0.0221,0.0261,0.0355,0.0404,0.049,0.057,0.0608,0.0939,0.0943,0.0931,0.0939,0.102,0.0954,0.0969,0,0,0.0157,0.0167,0.0183,0.0217,0.0286,0.0344,0.0489,0.06,0.0679,0.0884,0.0892,0.0938,0.0942,0.1023,0.1223,0.1229,0,0,0,0.017,0.0173,0.0205,0.026,0.0341,0.0484,0.0577,0.0679,0.0881,0.0742,0.1034,0.104,0.1088,0.1043,0.1051,0.1021,0.0965,0.0964,0.0964,0.0079,0.0155,0.0214,0.0323,0.0411,0.0594,0.0741,0.0921,0.0941,0.1062,0.1107,0.1266,0.1222,0.1226,0.1198,0.1183,0.1183,0.1183,0.1183,0.0075,0.0136,0.0257,0.0338,0.0512,0.0652,0.0938,0.1013,0.1259,0.1243,0.1289,0.1131,0.1232,0.1201,0.1184,0.1184,0.1184,0.1184,0.1184,0.0034,0.0088,0.0157,0.0336,0.0514,0.0711,0.0953,0.1137,0.1281,0.1356,0.1325,0.1324,0.1235,0.1366,0.1367,0.1367,0.1367,0.1368,0.1368,0.0001,0.0084,0.0173,0.035,0.0452,0.066,0.0974,0.1125,0.1294,0.1364,0.1364,0.1316,0.1323,0.1245,0.1375,0.1374,0.1373,0.1372,0.1372,0.0053,0.0058,0.0178,0.0271,0.0524,0.0698,0.0926,0.1162,0.1315,0.1368,0.1364,0.1391,0.1394,0.1388,0.1315,0.1456,0.1456,0.1456,0.1456,0.0064,0.0087,0.023,0.0373,0.056,0.0741,0.0919,0.1102,0.1283,0.1346,0.1385,0.13,0.1298,0.1292,0.1288,0.1213,0.1325,0.1325,0.1325,0.0163,0.0159,0.0266,0.0384,0.0589,0.0772,0.09,0.1005,0.1215,0.132,0.1368,0.1373,0.1247,0.1245,0.1229,0.1226,0.11,0,0]}],[{"header":{"parameterUnit":"m.s-1","parameterCategory":2,"la1":30.2992,"la2":30.254,"lo1":-89.0895,"lo2":-89.0443,"dy":0.0025,"dx":0.0025,"nx":19,"ny":19,"refTime":"2026-03-18T03:00:00:Z","depth":"2","parameterNumber":2,"parameterNumberName":"U-component_of_CURRENTS"},"data":[0,0,0,0.0789,0.0797,0.0945,0.0944,0.0869,0.087,0,0,0,0,0,0,0,0,0,0,0,0.0531,0.0531,0.0788,0.0798,0.0946,0.0944,0.0869,0.087,0,0,0,0,0,0,0,0,0,0,0,0.0531,0.0531,0.053,0.0799,0.0946,0.0944,0.0869,0.0785,0,0,0,0,0,0,0,0,0,0,0.0658,0.0643,0.0531,0.053,0.0802,0.0946,0.0944,0.0782,0.079,0.0777,0,0.0759,0,0.0972,0.0873,0.0874,0,0,0,0.0639,0.0637,0.0615,0.053,0.0805,0.0947,0.0834,0.0787,0.0796,0.0787,0.0761,0.0767,0.0971,0.0874,0.0874,0.1035,0.1036,0,0,0.0631,0.0626,0.0609,0.0619,0.0791,0.0831,0.0841,0.0794,0.0814,0.0762,0.0771,0.097,0.0874,0.0874,0.1034,0.1035,0,0,0,0.0715,0.0621,0.0601,0.0613,0.0752,0.0839,0.085,0.0811,0.0785,0.0773,0.0969,0.0874,0.0875,0.1032,0.1034,0.102,0,0,0,0.0702,0.0683,0.0596,0.0605,0.0754,0.0872,0.0868,0.0779,0.0793,0.0969,0.0874,0.0876,0.1031,0.1033,0.1017,0.1012,0,0,0,0.0534,0.0676,0.0654,0.0602,0.0758,0.0876,0.0846,0.0784,0.0921,0.0874,0.0876,0.103,0.1033,0.1014,0.1009,0.1081,0,0,0,0.0569,0.0652,0.0651,0.0758,0.0757,0.0811,0.0848,0.0905,0.0861,0.0875,0.1031,0.1034,0.1013,0.1006,0.1078,0.0992,0.0999,0,0,0.0717,0.067,0.0714,0.0725,0.0709,0.0782,0.0871,0.085,0.0915,0.0996,0.1001,0.1018,0.1008,0.108,0.118,0.118,0,0,0,0.079,0.0724,0.0714,0.0719,0.0768,0.0794,0.0873,0.0928,0.1016,0.0953,0.1089,0.1085,0.1129,0.1074,0.1076,0.105,0.1049,0.1049,0.1049,0.0761,0.0749,0.0745,0.0682,0.0723,0.0825,0.0867,0.0985,0.1015,0.1107,0.1124,0.1241,0.1184,0.1184,0.1185,0.1185,0.1185,0.1185,0.1185,0.0721,0.078,0.068,0.0706,0.0736,0.0838,0.0952,0.1013,0.1181,0.1192,0.1236,0.1126,0.1184,0.1185,0.1185,0.1185,0.1185,0.1185,0.1185,0.0736,0.0818,0.0787,0.0753,0.0853,0.0906,0.1016,0.109,0.12,0.1248,0.125,0.1248,0.1209,0.1299,0.1299,0.1299,0.1299,0.13,0.13,0.0903,0.0886,0.0874,0.0833,0.083,0.0919,0.107,0.1143,0.1216,0.1255,0.1255,0.128,0.1276,0.1221,0.1305,0.1304,0.1303,0.1303,0.1303,0.0947,0.1138,0.0969,0.0922,0.0875,0.0952,0.1042,0.1167,0.1243,0.1269,0.1269,0.1268,0.1273,0.1271,0.1219,0.1298,0.1298,0.1298,0.1298,0.1115,0.1143,0.1135,0.1027,0.0936,0.1015,0.1068,0.1044,0.1087,0.1048,0.1058,0.0975,0.0981,0.0966,0.0971,0.091,0.0909,0.0908,0.0907,0.1036,0.108,0.1106,0.1156,0.1027,0.11,0.1112,0.0878,0.0731,0.0888,0.0944,0.1281,0.1183,0.1184,0.118,0.118,0.1091,0,0]},{"header":{"parameterUnit":"m.s-1","parameterCategory":2,"la1":30.2992,"la2":30.254,"lo1":-89.0895,"lo2":-89.0443,"dy":0.0025,"dx":0.0025,"nx":19,"ny":19,"refTime":"2026-03-18T03:00:00:Z","depth":"2","parameterNumber":3,"parameterNumberName":"V-component_of_CURRENTS"},"data":[0,0,0,-0.0287,-0.0284,-0.0167,-0.0167,-0.0072,-0.0072,0,0,0,0,0,0,0,0,0,0,0,-0.0351,-0.0351,-0.0287,-0.0284,-0.0167,-0.0167,-0.0073,-0.0072,0,0,0,0,0,0,0,0,0,0,0,-0.0352,-0.0351,-0.0351,-0.0283,-0.0167,-0.0167,-0.0073,-0.0148,0,0,0,0,0,0,0,0,0,0,-0.0255,-0.0298,-0.0351,-0.0351,-0.0283,-0.0167,-0.0167,-0.0151,-0.0143,-0.014,0,-0.0135,0,-0.009,-0.0066,-0.0066,0,0,0,-0.0287,-0.0304,-0.0276,-0.0351,-0.0281,-0.0167,-0.0221,-0.0146,-0.0138,-0.013,-0.0133,-0.0128,-0.0088,-0.0066,-0.0066,0.011,0.0111,0,0,-0.0293,-0.0323,-0.0282,-0.0271,-0.0269,-0.0224,-0.0217,-0.014,-0.0138,-0.0133,-0.0125,-0.0087,-0.0065,-0.0065,0.0109,0.011,0,0,0,-0.031,-0.0328,-0.03,-0.0276,-0.0244,-0.0221,-0.0212,-0.0142,-0.0134,-0.0124,-0.0086,-0.0065,-0.0064,0.0107,0.0109,0.019,0,0,0,-0.0314,-0.0336,-0.0304,-0.0318,-0.0246,-0.018,-0.0216,-0.014,-0.0129,-0.0086,-0.0065,-0.0063,0.0106,0.0108,0.0185,0.0249,0,0,0,-0.0354,-0.0339,-0.0333,-0.0321,-0.0265,-0.018,-0.0167,-0.0137,-0.0105,-0.0066,-0.0063,0.0105,0.0108,0.018,0.024,0.0389,0,0,0,-0.0378,-0.035,-0.0334,-0.0301,-0.0267,-0.0155,-0.0167,-0.01,-0.0065,-0.0064,0.0106,0.0109,0.0179,0.0234,0.0383,0.0329,0.0356,0,0,-0.0348,-0.0347,-0.0329,-0.031,-0.0211,-0.017,-0.0029,-0.0008,-0.001,0.0072,0.0077,0.0187,0.0239,0.0388,0.0511,0.0532,0,0,0,-0.0323,-0.0308,-0.0278,-0.0225,-0.0147,-0.0008,0.0033,0.0082,0.0167,0.0029,0.0229,0.0261,0.0351,0.0305,0.0324,0.0124,0.0124,0.0123,0.0123,-0.0337,-0.0292,-0.0228,-0.0141,-0.0054,0.0102,0.022,0.0305,0.0251,0.0318,0.0356,0.0568,0.0518,0.0532,0.0375,0.0375,0.0376,0.0376,0.0376,-0.0282,-0.0229,-0.017,-0.0094,0.0045,0.0162,0.0398,0.0427,0.0618,0.0511,0.0594,0.0429,0.0556,0.0384,0.0382,0.0381,0.038,0.038,0.0379,-0.0267,-0.0218,-0.022,-0.0069,0.0039,0.0209,0.0437,0.0587,0.0696,0.0801,0.0766,0.0762,0.0635,0.0828,0.0829,0.083,0.0831,0.0832,0.0832,-0.0236,-0.0215,-0.0149,-0.0017,0.0036,0.0205,0.0479,0.0648,0.0853,0.0896,0.0895,0.0722,0.0707,0.0665,0.0847,0.0845,0.0843,0.0841,0.084,-0.018,-0.0145,-0.0055,-0.0003,0.0147,0.0345,0.0534,0.0826,0.1012,0.11,0.0978,0.097,0.0957,0.094,0.0905,0.114,0.114,0.114,0.114,-0.0124,-0.0088,-0.002,0.0043,0.0238,0.0391,0.0694,0.0845,0.1003,0.1021,0.1025,0.086,0.0851,0.0823,0.0807,0.0765,0.0965,0.0964,0.0964,-0.008,-0.0068,-0.0033,0.0037,0.0217,0.048,0.0735,0.0801,0.0861,0.0953,0.0959,0.1135,0.0895,0.088,0.0831,0.081,0.0739,0,0]}],[{"header":{"parameterUnit":"m.s-1","parameterCategory":2,"la1":30.2992,"la2":30.254,"lo1":-89.0895,"lo2":-89.0443,"dy":0.0025,"dx":0.0025,"nx":19,"ny":19,"refTime":"2026-03-18T03:00:00:Z","depth":"4","parameterNumber":2,"parameterNumberName":"U-component_of_CURRENTS"},"data":[0,0,0,-0.0665,-0.0664,-0.0664,-0.0664,-0.0617,-0.0617,0,0,0,0,0,0,0,0,0,0,0,-0.0677,-0.0677,-0.0665,-0.0664,-0.0664,-0.0664,-0.0618,-0.0617,0,0,0,0,0,0,0,0,0,0,0,-0.0677,-0.0677,-0.0677,-0.0664,-0.0664,-0.0664,-0.0618,-0.0632,0,0,0,0,0,0,0,0,0,0,-0.0639,-0.0677,-0.0677,-0.0677,-0.0664,-0.0664,-0.0664,-0.0633,-0.0631,-0.0601,0,-0.0606,0,-0.0599,-0.0612,-0.0611,0,0,0,-0.0674,-0.0679,-0.0651,-0.0677,-0.0664,-0.0664,-0.0667,-0.0632,-0.063,-0.0598,-0.0605,-0.0603,-0.0598,-0.0611,-0.0611,-0.044,-0.0439,0,0,-0.0674,-0.0701,-0.0653,-0.065,-0.0668,-0.0667,-0.0667,-0.0631,-0.0645,-0.0605,-0.0602,-0.0597,-0.0611,-0.061,-0.0441,-0.044,0,0,0,-0.0668,-0.0702,-0.0676,-0.0652,-0.0649,-0.0666,-0.0666,-0.0648,-0.0632,-0.0601,-0.0596,-0.061,-0.0609,-0.0443,-0.0441,-0.0384,0,0,0,-0.0668,-0.0696,-0.0676,-0.0696,-0.065,-0.066,-0.0684,-0.0635,-0.063,-0.0597,-0.061,-0.0609,-0.0444,-0.0442,-0.0389,-0.0431,0,0,0,-0.0677,-0.0698,-0.0693,-0.0697,-0.0688,-0.066,-0.0644,-0.0634,-0.0626,-0.0611,-0.0608,-0.0445,-0.0442,-0.0393,-0.0435,-0.0561,0,0,0,-0.071,-0.0713,-0.0694,-0.0702,-0.0688,-0.0679,-0.0645,-0.0655,-0.0651,-0.061,-0.0444,-0.0441,-0.0394,-0.0438,-0.0561,-0.0467,0,0,0,-0.0725,-0.0717,-0.0717,-0.0699,-0.069,-0.0679,-0.064,-0.0624,-0.0576,-0.0458,-0.0454,-0.0387,-0.0435,-0.0561,-0.0282,0,0,0,0,-0.0729,-0.0732,-0.0725,-0.0723,-0.0704,-0.0646,-0.0641,-0.0578,-0.0446,-0.0553,-0.0339,-0.0372,-0.0455,-0.0393,-0.0426,-0.0426,-0.0427,-0.0427,-0.0427,-0.0775,-0.0757,-0.0758,-0.0725,-0.0702,-0.0635,-0.0568,-0.0463,-0.0429,-0.0328,-0.0287,-0.0296,-0.0213,-0.0208,-0.0208,-0.0208,-0.0207,-0.0207,-0.0207,-0.0774,-0.0767,-0.0751,-0.0739,-0.0671,-0.0614,-0.0446,-0.0379,-0.0279,-0.0195,-0.0277,-0.0283,-0.02,-0.0202,-0.0203,-0.0203,-0.0204,-0.0204,-0.0205,-0.0787,-0.0778,-0.0777,-0.0739,-0.0664,-0.0552,-0.0441,-0.0328,-0.0266,-0.0268,-0.0306,-0.0322,-0.0383,-0.0331,-0.0332,-0.0333,-0.0333,-0.0334,-0.0334,-0.0779,-0.0776,-0.0767,-0.0717,-0.0685,-0.0577,-0.0448,-0.0412,-0.0376,-0.0288,-0.0303,-0.0342,-0.0338,-0.0393,-0.0344,-0.0342,-0.0341,-0.034,-0.0339,-0.075,-0.0752,-0.0736,-0.0727,-0.0655,-0.0571,-0.0512,-0.0428,-0.0464,-0.0451,-0.0332,-0.0329,-0.0393,-0.039,-0.045,-0.0417,-0.0416,-0.0415,0,-0.0729,-0.0725,-0.0702,-0.0677,-0.0618,-0.0557,-0.0477,-0.0449,-0.0436,-0.0403,-0.0529,-0.0399,-0.0393,-0.0469,-0.0464,-0.0534,0,0,0,-0.068,-0.0693,-0.0659,-0.0648,-0.0585,-0.0475,-0.0435,-0.0392,-0.0418,-0.0376,-0.0384,-0.0392,-0.0364,-0.0374,-0.0471,-0.0466,-0.0563,0,0]},{"header":{"parameterUnit":"m.s-1","parameterCategory":2,"la1":30.2992,"la2":30.254,"lo1":-89.0895,"lo2":-89.0443,"dy":0.0025,"dx":0.0025,"nx":19,"ny":19,"refTime":"2026-03-18T03:00:00:Z","depth":"4","parameterNumber":3,"parameterNumberName":"V-component_of_CURRENTS"},"data":[0,0,0,0.0309,0.0311,0.0392,0.0392,0.0446,0.0446,0,0,0,0,0,0,0,0,0,0,0,0.0261,0.0262,0.0309,0.0311,0.0392,0.0392,0.0445,0.0446,0,0,0,0,0,0,0,0,0,0,0,0.0261,0.0262,0.0262,0.0311,0.0392,0.0392,0.0445,0.0396,0,0,0,0,0,0,0,0,0,0,0.0323,0.0306,0.0262,0.0262,0.0312,0.0391,0.0392,0.0394,0.0399,0.0397,0,0.04,0,0.0435,0.0449,0.0449,0,0,0,0.0306,0.0302,0.031,0.0262,0.0313,0.0391,0.0354,0.0397,0.0402,0.0403,0.0402,0.0405,0.0436,0.0449,0.0449,0.0398,0.0397,0,0,0.0301,0.0292,0.0306,0.0313,0.0322,0.0351,0.0356,0.0401,0.0408,0.0402,0.0407,0.0437,0.0449,0.045,0.0399,0.0397,0,0,0,0.0292,0.0288,0.0297,0.031,0.0334,0.0354,0.036,0.0406,0.0405,0.0408,0.0437,0.045,0.045,0.04,0.0398,0.0419,0,0,0,0.0289,0.0284,0.0294,0.0292,0.0334,0.0384,0.0364,0.0401,0.0408,0.0437,0.045,0.0451,0.0401,0.0399,0.042,0.0399,0,0,0,0.026,0.0282,0.0284,0.0291,0.0329,0.0384,0.0387,0.0404,0.0426,0.0449,0.0451,0.0401,0.0399,0.0422,0.0402,0.0308,0,0,0,0.0257,0.0263,0.0283,0.0295,0.0328,0.035,0.0387,0.0439,0.0461,0.045,0.04,0.0398,0.0422,0.0404,0.0311,0.0382,0,0,0,0.0261,0.0264,0.0267,0.0287,0.03,0.034,0.0334,0.04,0.0416,0.0384,0.0384,0.042,0.0402,0.0309,0.0255,0,0,0,0,0.0266,0.0264,0.0267,0.0286,0.0306,0.0296,0.036,0.0361,0.0373,0.042,0.037,0.0356,0.0298,0.0346,0.0388,0.0388,0.0388,0.0389,0.0389,0.0254,0.0262,0.026,0.0259,0.0264,0.0287,0.0268,0.0268,0.0331,0.0325,0.0338,0.023,0.0281,0.0312,0.0312,0.0312,0.0312,0.0312,0.0312,0.0222,0.0217,0.0226,0.0253,0.0247,0.0269,0.0207,0.0242,0.0193,0.0269,0.0212,0.0322,0.0313,0.0313,0.0313,0.0313,0.0313,0.0313,0.0313,0.02,0.02,0.0233,0.0257,0.0279,0.0292,0.0194,0.0213,0.0196,0.0158,0.0182,0.0194,0.0229,0.0153,0.0153,0.0152,0.0152,0.0151,0.0151,0.0172,0.0177,0.0214,0.0251,0.0312,0.0297,0.0227,0.0146,0.0133,0.016,0.0168,0.0174,0.0179,0.0214,0.0143,0.0145,0.0146,0.0146,0.0147,0.013,0.013,0.0186,0.0243,0.0276,0.0229,0.0155,0.0084,-0.0019,-0.0028,0.0122,0.0125,0.0101,0.0107,0.0141,0.0044,0.0045,0.0046,0,0.0092,0.0088,0.0146,0.0185,0.0172,0.0143,0.0021,-0.0057,-0.0015,0.0045,-0.0081,0.0087,0.0092,0.0065,0.0071,0.0108,0,0,0,0.0031,0.007,0.0108,0.0142,0.0155,0.0027,-0.0029,0.0001,0.0015,-0.0012,0.006,0.0057,0.0026,0.012,0.0089,0.0096,0.015,0,0]}]]